Year,Month,Day,Hour,Minute,Value (Times are PST for temperature in C)
2014,04,26,00,04,7.30
2014,04,26,00,09,7.20
2014,04,26,00,14,7.20
2014,04,26,00,19,7.20
2014,04,26,00,24,7.10
2014,04,26,00,29,7.10
2014,04,26,00,34,7.00
2014,04,26,00,39,6.90
2014,04,26,00,44,6.90
2014,04,26,00,49,6.80
2014,04,26,00,54,6.80
2014,04,26,00,59,6.70
2014,04,26,01,04,6.70
2014,04,26,01,09,6.70
2014,04,26,01,14,6.70
2014,04,26,01,19,6.70
2014,04,26,01,24,6.70
2014,04,26,01,29,6.70
2014,04,26,01,34,6.80
2014,04,26,01,39,6.70
2014,04,26,01,44,6.70
2014,04,26,01,49,6.70
2014,04,26,01,54,6.70
2014,04,26,01,59,6.70
2014,04,26,02,04,6.70
2014,04,26,02,09,6.70
2014,04,26,02,14,6.70
2014,04,26,02,19,6.60
2014,04,26,02,24,6.60
2014,04,26,02,29,6.50
2014,04,26,02,34,6.50
2014,04,26,02,39,6.50
2014,04,26,02,44,6.40
2014,04,26,02,49,6.40
2014,04,26,02,54,6.40
2014,04,26,02,59,6.40
2014,04,26,03,04,6.40
2014,04,26,03,09,6.30
2014,04,26,03,14,6.30
2014,04,26,03,19,6.30
2014,04,26,03,24,6.30
2014,04,26,03,29,6.30
2014,04,26,03,34,6.30
2014,04,26,03,39,6.30
2014,04,26,03,44,6.20
2014,04,26,03,49,6.20
2014,04,26,03,54,6.10
2014,04,26,03,59,5.90
2014,04,26,04,04,5.90
2014,04,26,04,09,5.80
2014,04,26,04,14,5.80
2014,04,26,04,19,5.80
2014,04,26,04,24,5.90
2014,04,26,04,29,6.00
2014,04,26,04,34,6.20
2014,04,26,04,39,6.30
2014,04,26,04,44,6.30
2014,04,26,04,49,6.30
2014,04,26,04,54,6.40
2014,04,26,04,59,6.40
2014,04,26,05,04,6.40
2014,04,26,05,09,6.40
2014,04,26,05,14,6.40
2014,04,26,05,19,6.40
2014,04,26,05,24,6.40
2014,04,26,05,29,6.50
2014,04,26,05,34,6.50
2014,04,26,05,39,6.60
2014,04,26,05,44,6.60
2014,04,26,05,49,6.60
2014,04,26,05,54,6.40
2014,04,26,05,59,6.50
2014,04,26,06,04,6.60
2014,04,26,06,09,6.70
2014,04,26,06,14,6.70
2014,04,26,06,19,6.70
2014,04,26,06,24,6.80
2014,04,26,06,29,6.80
2014,04,26,06,34,6.80
2014,04,26,06,39,6.80
2014,04,26,06,44,7.00
2014,04,26,06,49,7.10
2014,04,26,06,54,7.20
2014,04,26,06,59,7.20
2014,04,26,07,04,7.20
2014,04,26,07,09,7.20
2014,04,26,07,14,7.20
2014,04,26,07,19,7.30
2014,04,26,07,24,7.40
2014,04,26,07,29,7.40
2014,04,26,07,34,7.40
2014,04,26,07,39,7.70
2014,04,26,07,44,7.80
2014,04,26,07,49,7.80
2014,04,26,07,54,8.00
2014,04,26,07,59,8.20
2014,04,26,08,04,8.10
2014,04,26,08,09,8.10
2014,04,26,08,14,8.20
2014,04,26,08,19,8.40
2014,04,26,08,24,8.50
2014,04,26,08,29,8.60
2014,04,26,08,34,8.70
2014,04,26,08,39,8.80
2014,04,26,08,44,8.90
2014,04,26,08,49,9.00
2014,04,26,08,54,9.20
2014,04,26,08,59,9.30
2014,04,26,09,04,9.40
2014,04,26,09,09,9.40
2014,04,26,09,14,9.40
2014,04,26,09,19,9.40
2014,04,26,09,24,9.40
2014,04,26,09,29,9.70
2014,04,26,09,34,9.60
2014,04,26,09,39,9.30
2014,04,26,09,44,9.20
2014,04,26,09,49,8.90
2014,04,26,09,54,8.90
2014,04,26,09,59,9.10
2014,04,26,10,04,9.30
2014,04,26,10,09,9.60
2014,04,26,10,14,9.90
2014,04,26,10,19,9.80
2014,04,26,10,24,10.00
2014,04,26,10,29,10.20
2014,04,26,10,34,10.30
2014,04,26,10,39,10.20
2014,04,26,10,44,10.20
2014,04,26,10,49,10.30
2014,04,26,10,54,10.20
2014,04,26,10,59,10.20
2014,04,26,11,04,10.20
2014,04,26,11,09,10.10
2014,04,26,11,14,10.10
2014,04,26,11,19,9.90
2014,04,26,11,24,10.00
2014,04,26,11,29,10.20
2014,04,26,11,34,10.00
2014,04,26,11,39,9.80
2014,04,26,11,44,9.80
2014,04,26,11,49,9.90
2014,04,26,11,54,9.90
2014,04,26,11,59,9.90
2014,04,26,12,04,10.00
2014,04,26,12,09,10.30
2014,04,26,12,14,10.40
2014,04,26,12,19,10.30
2014,04,26,12,24,10.20
2014,04,26,12,29,10.20
2014,04,26,12,34,10.60
2014,04,26,12,39,10.70
2014,04,26,12,44,10.90
2014,04,26,12,49,11.00
2014,04,26,12,54,11.10
2014,04,26,12,59,10.70
2014,04,26,13,04,10.20
2014,04,26,13,09,10.00
2014,04,26,13,14,10.10
2014,04,26,13,19,10.20
2014,04,26,13,24,10.20
2014,04,26,13,29,10.50
2014,04,26,13,34,10.70
2014,04,26,13,39,10.70
2014,04,26,13,44,10.80
2014,04,26,13,49,10.90
2014,04,26,13,54,11.00
2014,04,26,13,59,11.00
2014,04,26,14,04,11.10
2014,04,26,14,09,11.20
2014,04,26,14,14,11.20
2014,04,26,14,19,11.50
2014,04,26,14,24,11.70
2014,04,26,14,29,11.80
2014,04,26,14,34,11.90
2014,04,26,14,39,12.20
2014,04,26,14,44,12.20
2014,04,26,14,49,12.30
2014,04,26,14,54,12.40
2014,04,26,14,59,12.70
2014,04,26,15,04,12.60
2014,04,26,15,09,12.30
2014,04,26,15,14,12.30
2014,04,26,15,19,12.60
2014,04,26,15,24,12.40
2014,04,26,15,29,12.70
2014,04,26,15,34,12.60
2014,04,26,15,39,12.60
2014,04,26,15,44,12.30
2014,04,26,15,49,12.00
2014,04,26,15,54,11.90
2014,04,26,15,59,12.20
2014,04,26,16,04,12.20
2014,04,26,16,09,12.20
2014,04,26,16,14,12.40
2014,04,26,16,19,12.40
2014,04,26,16,24,12.30
2014,04,26,16,29,12.10
2014,04,26,16,34,11.90
2014,04,26,16,39,11.90
2014,04,26,16,44,12.30
2014,04,26,16,49,12.40
2014,04,26,16,54,12.30
2014,04,26,16,59,12.30
2014,04,26,17,04,12.30
2014,04,26,17,09,12.40
2014,04,26,17,14,12.30
2014,04,26,17,19,12.20
2014,04,26,17,24,12.20
2014,04,26,17,29,12.30
2014,04,26,17,34,12.40
2014,04,26,17,39,12.40
2014,04,26,17,44,12.30
2014,04,26,17,49,12.30
2014,04,26,17,54,12.00
2014,04,26,17,59,11.80
2014,04,26,18,04,11.70
2014,04,26,18,09,11.60
2014,04,26,18,14,11.40
2014,04,26,18,19,11.50
2014,04,26,18,24,11.40
2014,04,26,18,29,11.30
2014,04,26,18,34,11.30
2014,04,26,18,39,11.30
2014,04,26,18,44,11.30
2014,04,26,18,49,11.30
2014,04,26,18,54,11.20
2014,04,26,18,59,11.20
2014,04,26,19,04,11.30
2014,04,26,19,09,11.30
2014,04,26,19,14,11.20
2014,04,26,19,19,10.90
2014,04,26,19,24,10.80
2014,04,26,19,29,10.70
2014,04,26,19,34,10.60
2014,04,26,19,39,10.60
2014,04,26,19,44,10.50
2014,04,26,19,49,10.40
2014,04,26,19,54,10.30
2014,04,26,19,59,10.20
2014,04,26,20,04,10.10
2014,04,26,20,09,9.90
2014,04,26,20,14,9.80
2014,04,26,20,19,9.70
2014,04,26,20,24,9.60
2014,04,26,20,29,9.60
2014,04,26,20,34,9.60
2014,04,26,20,39,9.60
2014,04,26,20,44,9.50
2014,04,26,20,49,9.50
2014,04,26,20,54,9.40
2014,04,26,20,59,9.50
2014,04,26,21,04,9.40
2014,04,26,21,09,9.30
2014,04,26,21,14,9.20
2014,04,26,21,19,9.10
2014,04,26,21,24,8.90
2014,04,26,21,29,8.90
2014,04,26,21,34,8.80
2014,04,26,21,39,8.70
2014,04,26,21,44,8.70
2014,04,26,21,49,8.70
2014,04,26,21,54,8.60
2014,04,26,21,59,8.70
2014,04,26,22,04,8.70
2014,04,26,22,09,8.70
2014,04,26,22,14,8.80
2014,04,26,22,19,8.80
2014,04,26,22,24,8.70
2014,04,26,22,29,8.70
2014,04,26,22,34,8.70
2014,04,26,22,39,8.60
2014,04,26,22,44,8.60
2014,04,26,22,49,8.60
2014,04,26,22,54,8.70
2014,04,26,22,59,8.70
2014,04,26,23,04,8.60
2014,04,26,23,09,8.60
2014,04,26,23,14,8.40
2014,04,26,23,19,8.30
2014,04,26,23,24,8.20
2014,04,26,23,29,8.10
2014,04,26,23,34,8.10
2014,04,26,23,39,8.10
2014,04,26,23,44,8.10
2014,04,26,23,49,8.10
2014,04,26,23,54,8.10
2014,04,26,23,59,8.20
